Preview of NWS' New Version of Forecast
This preview is not operational and should not be used for support decisions.

Regional Weather Roundup (RWR)

Issued by National Weather Service (NWS)

                            
000
ASUS45 KBOU 211510
RWRCO 

WEATHER ROUNDUP FOR COLORADO
NATIONAL WEATHER SERVICE DENVER/BOULDER CO
800 AM MST THU FEB 21 2019

NOTE: "FAIR" INDICATES FEW OR NO CLOUDS BELOW 12000 FEET WITH NO
SIGNIFICANT WEATHER AND/OR OBSTRUCTIONS TO VISIBILITY.

COZ001>005-013-030-031-211600-
...NORTHWEST COLORADO...
  
CITY           SKY/WX    TMP DP  RH WIND       PRES   REMARKS
CRAIG          CLOUDY    16   6  65 NE6       29.65R WCI   7          
HAYDEN         PTSUNNY   13   5  70 E13       29.65R WCI  -2          
MEEKER         LGT SNOW  19  15  84 CALM      29.62R VSB 1            
RANGELY        SNOW      16  14  91 CALM      29.67R VSB 1/2          
RABBIT EARS PA CLOUDY   N/A N/A N/A S6        29.51S HAZE             
STEAMBOAT SPGS CLOUDY     6   2  82 CALM      29.65R                  
WALDEN         FAIR      -8 -15  71 SE7       29.65R WCI -22          
$$

COZ006>008-011-211600-
...WEST CENTRAL VALLEYS...
  
CITY           SKY/WX    TMP DP  RH WIND       PRES   REMARKS
GRAND JUNCTION CLOUDY    27  21  78 E9        29.66R WCI  18          
MONTROSE       CLOUDY    23  17  78 CALM      29.67R                  
EAGLE          CLOUDY    11   5  77 E7        29.71R WCI   0          
RIFLE          PTSUNNY   21  18  88 CALM      29.66R                  
DELTA          PTSUNNY   27  22  82 E6        29.68R WCI  20          
NUCLA          CLOUDY    27  19  74 E5        29.65R WCI  21          
$$

COZ017>023-064>068-211600-
...SOUTHWEST COLORADO...
  
CITY           SKY/WX    TMP DP  RH WIND       PRES   REMARKS
DURANGO        LGT SNOW  21  20  96 E7        29.67R VSB 3/4 WCI  12  
CORTEZ         LGT SNOW  24  21  88 NW3       29.65R VSB 1            
PAGOSA SPRINGS LGT SNOW  19  19  99 CALM      29.67R VSB 1            
TELLURIDE      LGT SNOW  16  12  86 CALM      29.58R                  
WOLF CREEK PAS CLOUDY     3   1  92 S14G20    29.58R WCI -15          
$$

COZ009-010-012-014-032>034-037-058>063-211600-
...CENTRAL COLORADO...
  
CITY           SKY/WX    TMP DP  RH WIND       PRES   REMARKS
ASPEN          FAIR       8   1  73 N3        29.59R                  
BUENA VISTA    LGT SNOW  13   8  80 CALM      29.66R                  
COPPER MTN     CLOUDY     9  -4  56 SE17      29.49R WCI -10          
BERTHOUD PASS  CLOUDY    -2 -13  60 SE12G21   29.50R WCI -20          
COTTONWOOD PAS LGT SNOW  10   7  85 CALM      29.59R                  
GUNNISON       FAIR       1  -4  79 S5        29.65R WCI  -9          
GRANBY         CLOUDY    -8 -12  80 NE3       29.65R                  
KREMMLING      CLOUDY    -4  -8  84 CALM      29.70R                  
LEADVILLE      LGT SNOW   5   1  83 NE5       29.57R VSB 3/4 WCI  -4  
MONARCH PASS     N/A      3   0  85 MISG      29.63R                  
SALIDA         FAIR      16   8  71 CALM      29.75R                  
SUNLIGHT       CLOUDY     5   1  85 S5        29.56R WCI  -4          
WILKERSON PASS FAIR       5   1  85 SW5       29.59R WCI  -4          
$$

COZ069>075-211600-
...SAN LUIS VALLEY/SANGRE DE CRISTO MOUNTAINS...
  
CITY           SKY/WX    TMP DP  RH WIND       PRES   REMARKS
ALAMOSA        CLOUDY    10   5  80 W5        29.68R WCI   2          
DEL NORTE      CLOUDY    12   8  84 CALM      29.68R                  
LA VETA PASS   NOT AVBL                                               
SAGUACHE       CLOUDY     7   1  78 CALM      29.68S                  
$$

COZ035-036-038>040-211600-
...NORTHERN COLORADO FRONT RANGE...
  
CITY           SKY/WX    TMP DP  RH WIND       PRES   REMARKS
DENVER INTL AP PTSUNNY   15   7  70 W12       29.75R WCI   2          
AURORA         PTSUNNY   16   7  69 W10       29.75R WCI   3          
FRONT RANGE AP PTSUNNY   16   9  73 W12       29.75S WCI   3          
ERIE MUNI ARPT FAIR      18   8  63 NW3       29.84R                  
BOULDER MUN AP FAIR      21   5  49 CALM      29.78R                  
CENTENNIAL     PTSUNNY   16   6  65 W8        29.74R WCI   5          
BROOMFIELD     SUNNY     18   5  57 NW9       29.76R WCI   6          
FORT COLLINS   FAIR      17   7  64 N12       29.80R WCI   4          
LONGMONT       FAIR      23   7  49 N7        29.81R WCI  15          
$$

COZ041-046-047-076>085-087-088-211600-
...PIKES PEAK/PALMER DIVIDE AND SOUTHERN FOOTHILLS...
  
CITY           SKY/WX    TMP DP  RH WIND       PRES   REMARKS
COLO. SPRINGS  PTSUNNY   19   9  65 N5        29.70R WCI  12          
A. F. ACADEMY  FAIR      14   2  57 N9        29.69R WCI   2          
SCHRIEVER AFB  NOT AVBL                                               
CHEYENNE MTN   FAIR      21   5  50 N7        29.62R WCI  12          
ELLICOTT         N/A    N/A N/A N/A E7          N/A                   
FALCON         FAIR      20   7  56 N7        29.69R WCI  11          
FORT CARSON    FAIR      21   7  53 N15       29.70R WCI   8          
LIMON          PTSUNNY   17  14  88 CALM      29.76R                  
MONUMENT HILL  FAIR      10   1  67 W9        29.70R WCI  -2          
CANON CITY     FAIR      19  12  73 CALM      29.72                   
WALSENBURG     NOT AVBL                                               
TRINIDAD       FAIR      29  14  53 NW6       29.70R WCI  23          
$$

COZ042>045-048>051-090-091-211600-
...NORTHEAST COLORADO...
  
CITY           SKY/WX    TMP DP  RH WIND       PRES   REMARKS
GREELEY ARPT   FAIR      17   7  64 N8        29.81R WCI   7          
AKRON          PTSUNNY   19  12  74 E10       29.79S WCI   7          
BURLINGTON     CLOUDY    21  13  71 SE9       29.82R WCI  11          
WRAY           CLOUDY    23  16  74 E10       29.89R WCI  12          
YUMA           CLOUDY    21  14  73 E9        29.83R WCI  11          
STERLING       CLOUDY    19   9  63 NE8       29.85R WCI   9          
HOLYOKE        FAIR      25  14  63 E8        29.90R WCI  16          
FORT MORGAN      N/A     22  10  60 E9        29.81R WCI  11          
$$

COZ086-089-092>099-211600-
...SOUTHEAST COLORADO...
  
CITY           SKY/WX    TMP DP  RH WIND       PRES   REMARKS
PUEBLO         FAIR      17  11  77 CALM      29.76R                  
LA JUNTA       FAIR      21  16  81 N3        29.79R                  
LAMAR          FAIR      22  17  81 CALM      29.80R                  
SPRINGFIELD      N/A     30  19  63 SW9       29.77R WCI  22          
$$